Tracking 27107 objects as of 22-Mar-2023
HD Live streaming from Space Station
objects crossing your sky now

RESURS O1 DEB

Track RESURS O1 DEB now!
10-day predictions


NORAD ID: 49227
Int'l Code: 1994-074FF
Perigee: 566.5 km
Apogee: 568.6 km
Inclination: 97.9 °
Period: 95.9 minutes
Semi major axis: 6938 km
RCS: Unknown
Launch date: November 4, 1994
Source: Commonwealth of Independent States (former USSR) (CIS)
Launch site: TYURATAM MISSILE AND SPACE COMPLEX (TTMTR)

Note: This is SATELLITE DEBRIS
Your satellite tracking list
Your tracking list is empty




NASA's NSSDC Master Catalog

Two Line Element Set (TLE):
1 49227U 94074FF  23076.89903723  .00078385  00000-0  59075-2 0  9996
2 49227  97.9345 135.1397 0001575 252.5980 107.5072 15.02103338 88128
Source of the keplerian elements: AFSPC